LEMUR 2 MANO

Satellite information

Favourite Embed

Satellite Type and Status

PAYLOADIN ORBIT

Key statistics

Satellite LEMUR 2 MANO at a glance.

Uptime

880

Days in orbit

Revolutions

≈ 15.4

Per day

Orbit

SSO

Sun Synchronous Orbit

Inclination

99.5

Latest

Satellite identification and parameters

Extended collection of information and parameters for LEMUR 2 MANO.

Object identification

Identified? True

Debris? False

Object name: LEMUR 2 MANO

International designator: 2023-100E

Object number (NORAD): 57390

Object ID (CCSDS): 57390

Country: UNITED STATES OF AMERICA (US)

Current information (Y/N): Y

RCS size: SMALL

Orbital parameters

Period: 93.279 minutes

Inclination: 99.4648 deg

SMA: 6813.186 km

Apoapsis: 437.391 km

Periapsis: 432.711 km

RAAN: 335.4019 deg

Eccentricy: 0.0003434

Argument of periapsis: 310.1943 deg

Mean anomaly: 49.8998 deg

Mean motion: 15.43751473 rev/day

Mean motion (dot): 0.00106882 rev/day2

B* drag term: 0.0023364196 1/REarth

Two-line elements (TLE)

Creation date: Dec. 11, 2025, 7:14 p.m.

Reference frame: TEME

Reference center: EARTH

Epoch: Dec. 11, 2025, 10:48 a.m. UTC

TLE line 0: 0 LEMUR 2 MANO

TLE line 1: 1 57390U 23100E 25345.45040920 .00106882 00000-0 23364-2 0 9998

TLE line 2: 2 57390 99.4648 335.4019 0003434 310.1943 49.8998 15.43751473132807

Live tracking on map

Real-time ground track for satellite LEMUR 2 MANO.

In-orbit conjunctions

There are no conjunctions computed for LEMUR 2 MANO, at the moment. Check back to stay up to date, as we update our databases every day.

Go to all conjunctions

Associated space launch

The "Baby Come Back" mission includes NASA's Starling project, which consists of four CubeSats designed to test technologies for future swarm missions. Telesat contributes the LEO 3 demonstration satellite, ensuring continuity for customers and ecosystem vendor testing. Additionally, two 3U satellites carrying GNSS-RO payloads from SpinGlobal will replenish their constellation of over 100 multipurpose satellites.

LEMUR 2 MANO was lifted into orbit during the mission ‘Electron | Baby Come Back (Rideshare)’, on board a Electron space rocket.

The launch took place on July 18, 2023, 1:27 a.m. from Rocket Lab Launch Complex 1B.

For more information about the launch, click the button.

Launch to space Electron | Baby Come Back (Rideshare)
Electron | Baby Come Back (Rideshare)

Agency: N/A

Status: Launch Successful

Launch date: July 18, 2023, 1:27 a.m. UTC

Rocket: Electron

Launch pad: Rocket Lab Launch Complex 1B

Location: Rocket Lab Launch Complex 1, Mahia Peninsula, New Zealand

...

Latest news about this satellite

News about space launch
Making multiple breakthroughs in spacecraft swarms

Each year, SpaceNews selects the people, programs and technologies that have most influenced the direction of the space industry in the past year. Started in 2017, our annual celebration recognizes outsized achievements in a business in which no ambition ...

News about space launch
NASA boosts science objectives for Starling swarm

NASA is expanding testing of distributed autonomy for its first satellite swarm, Starling. The post NASA boosts science objectives for Starling swarm appeared first on SpaceNews.

News about space launch
Launch Roundup: Rocket Lab conducts Electron reuse attempt, SpaceX flies two Starlink v2 missions

The week of July 16 through July 23 saw four more launches take place around the world, potentially increasing the orbital launch count to 108 so far in 2023. This included Rocket Lab’s launch of the “Baby Come Back” mission (which featured a first stage ...


Newsletter sign-up

Weekly statistics, charts and insights to help you stay on top of the space industry.